SWA3913 KATL-KDAL

Flight info

Callsign SWA3913
Flight time 2h 7m
Altitude 32000
Route KAJIN2 STNGA MLU PUDJE REDDN4
Aircraft B737/M-SDE2E3GIJ4RWZ/LB1D1

Departure

Time 2026-05-07 16:01
Airport Hartsfield Jackson Atlanta International Airport (KATL)

Arrival

Time 2026-05-07 18:08
Airport Dallas Love Field (KDAL)
Time Latitude Longitude Altitude Speed Heading
2026-05-07 15:36 33.63868 -84.43321 1023 ft 0 kts 90°
2026-05-07 15:51 33.63868 -84.43333 1023 ft 2 kts 90°
2026-05-07 15:51 33.63868 -84.43352 1023 ft 2 kts 90°
2026-05-07 15:51 33.63868 -84.43369 1023 ft 2 kts 90°
2026-05-07 15:52 33.63868 -84.43388 1023 ft 2 kts 90°
2026-05-07 15:52 33.63868 -84.43394 1023 ft 0 kts 90°
2026-05-07 15:54 33.63869 -84.43393 1023 ft 0 kts 79°
2026-05-07 15:55 33.63877 -84.43391 1023 ft 4 kts
2026-05-07 15:55 33.63950 -84.43393 1023 ft 14 kts 359°
2026-05-07 15:55 33.64046 -84.43393 1023 ft 13 kts 359°
2026-05-07 15:55 33.64136 -84.43392 1023 ft 12 kts
2026-05-07 15:56 33.64222 -84.43393 1023 ft 12 kts
2026-05-07 15:56 33.64328 -84.43393 1023 ft 17 kts
2026-05-07 15:56 33.64444 -84.43369 1023 ft 16 kts 45°
2026-05-07 15:56 33.64458 -84.43220 1023 ft 19 kts 90°
2026-05-07 15:57 33.64459 -84.43045 1023 ft 21 kts 90°
2026-05-07 15:57 33.64458 -84.42868 1023 ft 20 kts 90°
2026-05-07 15:57 33.64467 -84.42702 1023 ft 19 kts 87°
2026-05-07 15:57 33.64468 -84.42531 1019 ft 20 kts 90°
2026-05-07 15:58 33.64468 -84.42354 1015 ft 22 kts 90°
2026-05-07 15:58 33.64508 -84.42180 1013 ft 21 kts 59°
2026-05-07 15:58 33.64540 -84.42011 1011 ft 21 kts 90°
2026-05-07 15:58 33.64540 -84.41824 1008 ft 22 kts 90°
2026-05-07 15:59 33.64540 -84.41637 1008 ft 21 kts 90°
2026-05-07 15:59 33.64540 -84.41436 1012 ft 26 kts 90°
2026-05-07 15:59 33.64540 -84.41231 1016 ft 22 kts 90°
2026-05-07 15:59 33.64540 -84.41038 1021 ft 25 kts 90°
2026-05-07 16:00 33.64543 -84.40839 1026 ft 21 kts 80°
2026-05-07 16:00 33.64570 -84.40679 1033 ft 18 kts 90°
2026-05-07 16:00 33.64634 -84.40567 1036 ft 18 kts
2026-05-07 16:00 33.64679 -84.40608 1036 ft 3 kts 270°
2026-05-07 16:01 33.64679 -84.40794 1029 ft 56 kts 271°
2026-05-07 16:01 33.64678 -84.41545 1010 ft 122 kts 270°
2026-05-07 16:01 33.64675 -84.42760 1084 ft 165 kts 271°
2026-05-07 16:01 33.64655 -84.44157 1693 ft 170 kts 270°
2026-05-07 16:02 33.64649 -84.45544 2374 ft 169 kts 276°
2026-05-07 16:02 33.64898 -84.46954 2831 ft 180 kts 287°
2026-05-07 16:02 33.65232 -84.48441 3336 ft 189 kts 285°
2026-05-07 16:02 33.65526 -84.50009 3834 ft 199 kts 283°
2026-05-07 16:03 33.65824 -84.51678 4246 ft 214 kts 283°
2026-05-07 16:03 33.66153 -84.53483 4738 ft 227 kts 282°
2026-05-07 16:03 33.66500 -84.55379 5246 ft 238 kts 282°
2026-05-07 16:03 33.66863 -84.57352 5854 ft 245 kts 282°
2026-05-07 16:04 33.67221 -84.59325 6655 ft 244 kts 281°
2026-05-07 16:04 33.67564 -84.61314 7339 ft 248 kts 280°
2026-05-07 16:04 33.67901 -84.63329 8128 ft 248 kts 279°
2026-05-07 16:04 33.68236 -84.65356 8869 ft 251 kts 278°
2026-05-07 16:05 33.68579 -84.67416 9680 ft 252 kts 279°
2026-05-07 16:05 33.68929 -84.69458 10389 ft 256 kts 278°
2026-05-07 16:05 33.69288 -84.71603 10997 ft 265 kts 278°
2026-05-07 16:05 33.69652 -84.73756 11821 ft 265 kts 277°
2026-05-07 16:06 33.69841 -84.75931 12650 ft 263 kts 266°
2026-05-07 16:06 33.69465 -84.78071 13424 ft 265 kts 251°
2026-05-07 16:06 33.68767 -84.80109 14208 ft 267 kts 249°
2026-05-07 16:06 33.68049 -84.82122 15087 ft 265 kts 250°
2026-05-07 16:07 33.67358 -84.84163 15923 ft 266 kts 251°
2026-05-07 16:07 33.66696 -84.86205 16698 ft 266 kts 251°
2026-05-07 16:07 33.66028 -84.88294 17432 ft 268 kts 252°
2026-05-07 16:07 33.65371 -84.90342 18182 ft 268 kts 252°
2026-05-07 16:08 33.64696 -84.92427 18803 ft 272 kts 252°
2026-05-07 16:08 33.64004 -84.94556 19428 ft 276 kts 251°
2026-05-07 16:08 33.63306 -84.96704 20072 ft 277 kts 251°
2026-05-07 16:08 33.62611 -84.98848 20662 ft 280 kts 251°
2026-05-07 16:09 33.61908 -85.01022 21203 ft 284 kts 251°
2026-05-07 16:09 33.61197 -85.03217 21817 ft 284 kts 252°
2026-05-07 16:09 33.60478 -85.05442 22378 ft 286 kts 252°
2026-05-07 16:09 33.59754 -85.07683 22860 ft 290 kts 251°
2026-05-07 16:10 33.59025 -85.09933 23401 ft 293 kts 252°
2026-05-07 16:10 33.58292 -85.12193 23947 ft 294 kts 251°
2026-05-07 16:10 33.57550 -85.14476 24558 ft 294 kts 252°
2026-05-07 16:10 33.56811 -85.16751 25042 ft 296 kts 252°
2026-05-07 16:11 33.56068 -85.19035 25570 ft 297 kts 251°
2026-05-07 16:11 33.55318 -85.21358 26026 ft 300 kts 252°
2026-05-07 16:11 33.54669 -85.23755 26510 ft 300 kts 256°
2026-05-07 16:11 33.54184 -85.26174 27008 ft 301 kts 258°
2026-05-07 16:12 33.53756 -85.28610 27352 ft 304 kts 259°
2026-05-07 16:12 33.53326 -85.31095 27826 ft 304 kts 258°
2026-05-07 16:12 33.52893 -85.33545 28236 ft 305 kts 258°
2026-05-07 16:12 33.52443 -85.36037 28594 ft 308 kts 258°
2026-05-07 16:13 33.51982 -85.38558 29033 ft 309 kts 259°
2026-05-07 16:13 33.51524 -85.41042 29419 ft 310 kts 258°
2026-05-07 16:13 33.51057 -85.43572 29778 ft 313 kts 258°
2026-05-07 16:13 33.50580 -85.46138 30149 ft 314 kts 258°
2026-05-07 16:14 33.50109 -85.48665 30472 ft 317 kts 258°
2026-05-07 16:14 33.49625 -85.51261 30854 ft 317 kts 257°
2026-05-07 16:14 33.49148 -85.53818 31236 ft 318 kts 257°
2026-05-07 16:14 33.48662 -85.56416 31555 ft 320 kts 257°
2026-05-07 16:15 33.48175 -85.59021 31881 ft 321 kts 257°
2026-05-07 16:15 33.47197 -85.64236 31972 ft 323 kts 258°
2026-05-07 16:16 33.46213 -85.69468 31982 ft 321 kts 257°
2026-05-07 16:16 33.45237 -85.74654 31983 ft 321 kts 257°
2026-05-07 16:17 33.44251 -85.79875 31983 ft 323 kts 257°
2026-05-07 16:17 33.43261 -85.85106 31985 ft 321 kts 257°
2026-05-07 16:18 33.42273 -85.90309 31984 ft 322 kts 257°
2026-05-07 16:18 33.41280 -85.95541 31988 ft 321 kts 257°
2026-05-07 16:19 33.40292 -86.00716 31991 ft 321 kts 257°
2026-05-07 16:19 33.39301 -86.05907 31997 ft 321 kts 257°
2026-05-07 16:20 33.38303 -86.11124 32001 ft 322 kts 257°
2026-05-07 16:20 33.37304 -86.16318 31998 ft 320 kts 257°
2026-05-07 16:21 33.36308 -86.21496 31992 ft 321 kts 257°
2026-05-07 16:21 33.35306 -86.26689 31992 ft 320 kts 257°
2026-05-07 16:22 33.34305 -86.31861 31983 ft 321 kts 257°
2026-05-07 16:22 33.33300 -86.37039 31986 ft 320 kts 258°
2026-05-07 16:23 33.32288 -86.42249 31996 ft 321 kts 258°
2026-05-07 16:23 33.31287 -86.47400 31994 ft 321 kts 257°
2026-05-07 16:24 33.30271 -86.52596 31998 ft 321 kts 258°
2026-05-07 16:24 33.29259 -86.57770 32000 ft 321 kts 258°
2026-05-07 16:25 33.28241 -86.62958 32005 ft 321 kts 258°
2026-05-07 16:25 33.27227 -86.68120 32007 ft 321 kts 257°
2026-05-07 16:26 33.26202 -86.73318 32011 ft 320 kts 257°
2026-05-07 16:26 33.25180 -86.78488 32011 ft 320 kts 257°
2026-05-07 16:27 33.24154 -86.83664 32014 ft 321 kts 257°
2026-05-07 16:27 33.23131 -86.88806 32017 ft 318 kts 257°
2026-05-07 16:28 33.22110 -86.93953 32016 ft 320 kts 257°
2026-05-07 16:28 33.21079 -86.99129 32023 ft 319 kts 257°
2026-05-07 16:29 33.20060 -87.04230 32021 ft 319 kts 257°
2026-05-07 16:29 33.19024 -87.09406 32021 ft 319 kts 257°
2026-05-07 16:30 33.17989 -87.14562 32021 ft 320 kts 257°
2026-05-07 16:30 33.16955 -87.19692 32024 ft 318 kts 257°
2026-05-07 16:31 33.15919 -87.24822 32019 ft 319 kts 257°
2026-05-07 16:31 33.14877 -87.29989 32023 ft 319 kts 257°
2026-05-07 16:32 33.13835 -87.35133 32020 ft 320 kts 257°
2026-05-07 16:32 33.12785 -87.40303 32015 ft 319 kts 257°
2026-05-07 16:33 33.11753 -87.45437 32010 ft 319 kts 258°
2026-05-07 16:33 33.11066 -87.50668 32022 ft 320 kts 262°
2026-05-07 16:34 33.10530 -87.55911 32019 ft 318 kts 262°
2026-05-07 16:34 33.09970 -87.61130 32016 ft 319 kts 262°
2026-05-07 16:35 33.09384 -87.66387 32018 ft 318 kts 261°
2026-05-07 16:35 33.08785 -87.71645 32020 ft 319 kts 262°
2026-05-07 16:36 33.08186 -87.76890 32014 ft 318 kts 261°
2026-05-07 16:36 33.07584 -87.82128 32013 ft 319 kts 261°
2026-05-07 16:37 33.06985 -87.87331 32016 ft 320 kts 261°
2026-05-07 16:37 33.06375 -87.92587 32023 ft 317 kts 261°
2026-05-07 16:38 33.05768 -87.97815 32016 ft 318 kts 261°
2026-05-07 16:38 33.05161 -88.03011 32016 ft 319 kts 262°
2026-05-07 16:39 33.04545 -88.08279 32017 ft 318 kts 261°
2026-05-07 16:39 33.03932 -88.13501 32020 ft 318 kts 262°
2026-05-07 16:40 33.03315 -88.18727 32018 ft 319 kts 261°
2026-05-07 16:40 33.02696 -88.23963 32016 ft 319 kts 262°
2026-05-07 16:41 33.02080 -88.29159 32021 ft 319 kts 261°
2026-05-07 16:41 33.01459 -88.34370 32021 ft 318 kts 262°
2026-05-07 16:42 33.00838 -88.39572 32020 ft 319 kts 261°
2026-05-07 16:42 33.00207 -88.44814 32022 ft 319 kts 261°
2026-05-07 16:43 32.99578 -88.50043 32025 ft 319 kts 261°
2026-05-07 16:43 32.98952 -88.55225 32026 ft 319 kts 262°
2026-05-07 16:44 32.98317 -88.60448 32029 ft 318 kts 261°
2026-05-07 16:44 32.97680 -88.65674 32031 ft 319 kts 261°
2026-05-07 16:45 32.97041 -88.70892 32033 ft 318 kts 261°
2026-05-07 16:45 32.96402 -88.76106 32037 ft 320 kts 261°
2026-05-07 16:46 32.95763 -88.81297 32040 ft 318 kts 261°
2026-05-07 16:46 32.95118 -88.86515 32045 ft 318 kts 261°
2026-05-07 16:47 32.94476 -88.91692 32044 ft 318 kts 261°
2026-05-07 16:47 32.93823 -88.96922 32045 ft 319 kts 261°
2026-05-07 16:48 32.93174 -89.02135 32047 ft 318 kts 261°
2026-05-07 16:48 32.92520 -89.07358 32049 ft 320 kts 261°
2026-05-07 16:49 32.91871 -89.12528 32050 ft 318 kts 261°
2026-05-07 16:49 32.91215 -89.17741 32050 ft 320 kts 261°
2026-05-07 16:50 32.90555 -89.22946 32048 ft 317 kts 261°
2026-05-07 16:50 32.89898 -89.28116 32050 ft 318 kts 261°
2026-05-07 16:51 32.89236 -89.33313 32048 ft 317 kts 261°
2026-05-07 16:51 32.88578 -89.38462 32048 ft 316 kts 261°
2026-05-07 16:52 32.87913 -89.43636 32048 ft 317 kts 261°
2026-05-07 16:52 32.87251 -89.48805 32048 ft 316 kts 262°
2026-05-07 16:53 32.86585 -89.53958 32048 ft 316 kts 261°
2026-05-07 16:53 32.85917 -89.59111 32048 ft 315 kts 261°
2026-05-07 16:54 32.85251 -89.64232 32045 ft 315 kts 261°
2026-05-07 16:54 32.84585 -89.69357 32039 ft 316 kts 261°
2026-05-07 16:55 32.83914 -89.74477 32038 ft 314 kts 261°
2026-05-07 16:55 32.83235 -89.79630 32036 ft 313 kts 261°
2026-05-07 16:56 32.82556 -89.84746 32036 ft 315 kts 261°
2026-05-07 16:56 32.81544 -89.92427 32036 ft 316 kts 261°
2026-05-07 16:57 32.80867 -89.97537 32034 ft 313 kts 261°
2026-05-07 16:57 32.80185 -90.02670 32035 ft 315 kts 261°
2026-05-07 16:58 32.79498 -90.07794 32034 ft 316 kts 261°
2026-05-07 16:58 32.78805 -90.12949 32038 ft 316 kts 260°
2026-05-07 16:59 32.78114 -90.18093 32038 ft 316 kts 261°
2026-05-07 16:59 32.77422 -90.23226 32040 ft 315 kts 261°
2026-05-07 17:00 32.76724 -90.28378 32041 ft 317 kts 261°
2026-05-07 17:00 32.76026 -90.33521 32041 ft 316 kts 261°
2026-05-07 17:01 32.75330 -90.38649 32046 ft 315 kts 261°
2026-05-07 17:01 32.74628 -90.43767 32045 ft 315 kts 261°
2026-05-07 17:02 32.73926 -90.48889 32045 ft 317 kts 261°
2026-05-07 17:02 32.73219 -90.54037 32046 ft 315 kts 261°
2026-05-07 17:03 32.72508 -90.59181 32050 ft 316 kts 261°
2026-05-07 17:03 32.71795 -90.64327 32055 ft 316 kts 261°
2026-05-07 17:04 32.71079 -90.69488 32054 ft 318 kts 261°
2026-05-07 17:04 32.70367 -90.74618 32056 ft 316 kts 260°
2026-05-07 17:05 32.69647 -90.79785 32058 ft 318 kts 260°
2026-05-07 17:05 32.68925 -90.84924 32058 ft 318 kts 261°
2026-05-07 17:06 32.68199 -90.90089 32063 ft 318 kts 261°
2026-05-07 17:06 32.67473 -90.95246 32063 ft 317 kts 261°
2026-05-07 17:07 32.66746 -91.00391 32062 ft 318 kts 261°
2026-05-07 17:07 32.66017 -91.05541 32066 ft 317 kts 260°
2026-05-07 17:08 32.65281 -91.10706 32063 ft 316 kts 260°
2026-05-07 17:08 32.64547 -91.15840 32067 ft 316 kts 261°
2026-05-07 17:09 32.63812 -91.20978 32068 ft 318 kts 261°
2026-05-07 17:09 32.63071 -91.26145 32067 ft 318 kts 260°
2026-05-07 17:10 32.62325 -91.31316 32067 ft 317 kts 261°
2026-05-07 17:10 32.61585 -91.36450 32069 ft 319 kts 261°
2026-05-07 17:11 32.60836 -91.41629 32067 ft 317 kts 260°
2026-05-07 17:11 32.60091 -91.46762 32065 ft 318 kts 261°
2026-05-07 17:12 32.59335 -91.51938 32067 ft 319 kts 260°
2026-05-07 17:12 32.58578 -91.57116 32069 ft 318 kts 260°
2026-05-07 17:13 32.57825 -91.62247 32069 ft 319 kts 261°
2026-05-07 17:13 32.57057 -91.67451 32072 ft 319 kts 259°
2026-05-07 17:14 32.56296 -91.72623 32077 ft 319 kts 260°
2026-05-07 17:14 32.55535 -91.77779 32079 ft 317 kts 260°
2026-05-07 17:15 32.54774 -91.82916 32081 ft 318 kts 260°
2026-05-07 17:15 32.54007 -91.88073 32088 ft 319 kts 260°
2026-05-07 17:16 32.53236 -91.93238 32088 ft 318 kts 260°
2026-05-07 17:16 32.52465 -91.98395 32089 ft 320 kts 259°
2026-05-07 17:17 32.51723 -92.03557 32088 ft 317 kts 262°
2026-05-07 17:17 32.51435 -92.08787 32088 ft 321 kts 266°
2026-05-07 17:18 32.51321 -92.14047 32088 ft 319 kts 266°
2026-05-07 17:18 32.51175 -92.19314 32085 ft 319 kts 266°
2026-05-07 17:19 32.51011 -92.24544 32083 ft 320 kts 265°
2026-05-07 17:19 32.50839 -92.29787 32079 ft 320 kts 265°
2026-05-07 17:20 32.50662 -92.35046 32080 ft 319 kts 265°
2026-05-07 17:20 32.50485 -92.40295 32080 ft 319 kts 265°
2026-05-07 17:21 32.50303 -92.45515 32087 ft 320 kts 266°
2026-05-07 17:21 32.50119 -92.50744 32079 ft 318 kts 265°
2026-05-07 17:22 32.49932 -92.55984 32082 ft 320 kts 266°
2026-05-07 17:22 32.49743 -92.61237 32083 ft 320 kts 265°
2026-05-07 17:23 32.49553 -92.66479 32086 ft 318 kts 265°
2026-05-07 17:23 32.49362 -92.71698 32081 ft 319 kts 265°
2026-05-07 17:24 32.49167 -92.76923 32075 ft 318 kts 265°
2026-05-07 17:24 32.48973 -92.82153 32076 ft 318 kts 265°
2026-05-07 17:25 32.48773 -92.87407 32073 ft 319 kts 265°
2026-05-07 17:25 32.48573 -92.92656 32065 ft 319 kts 265°
2026-05-07 17:26 32.48383 -92.97911 32070 ft 318 kts 265°
2026-05-07 17:26 32.48199 -93.03153 32066 ft 318 kts 265°
2026-05-07 17:27 32.48011 -93.08374 32070 ft 320 kts 265°
2026-05-07 17:27 32.47818 -93.13627 32069 ft 318 kts 265°
2026-05-07 17:28 32.47624 -93.18879 32076 ft 319 kts 265°
2026-05-07 17:28 32.47430 -93.24107 32074 ft 319 kts 265°
2026-05-07 17:29 32.47232 -93.29326 32077 ft 320 kts 265°
2026-05-07 17:29 32.47029 -93.34580 32074 ft 319 kts 264°
2026-05-07 17:30 32.46827 -93.39838 32080 ft 320 kts 265°
2026-05-07 17:30 32.46621 -93.45074 32083 ft 319 kts 265°
2026-05-07 17:31 32.46412 -93.50324 32094 ft 321 kts 265°
2026-05-07 17:31 32.46202 -93.55573 32089 ft 319 kts 265°
2026-05-07 17:32 32.45990 -93.60854 32096 ft 320 kts 265°
2026-05-07 17:32 32.45779 -93.66093 32107 ft 320 kts 264°
2026-05-07 17:33 32.45563 -93.71336 32098 ft 319 kts 264°
2026-05-07 17:33 32.45345 -93.76577 32089 ft 320 kts 265°
2026-05-07 17:34 32.45124 -93.81832 32098 ft 320 kts 264°
2026-05-07 17:34 32.44900 -93.87092 32109 ft 320 kts 264°
2026-05-07 17:35 32.44676 -93.92310 32107 ft 319 kts 264°
2026-05-07 17:35 32.44448 -93.97578 32100 ft 321 kts 264°
2026-05-07 17:36 32.44218 -94.02814 32097 ft 320 kts 265°
2026-05-07 17:36 32.43985 -94.08114 32101 ft 321 kts 264°
2026-05-07 17:37 32.43750 -94.13402 32091 ft 320 kts 264°
2026-05-07 17:37 32.43511 -94.18707 32103 ft 322 kts 264°
2026-05-07 17:38 32.43275 -94.23941 32097 ft 321 kts 264°
2026-05-07 17:38 32.43034 -94.29207 32095 ft 321 kts 264°
2026-05-07 17:39 32.42789 -94.34475 32108 ft 321 kts 264°
2026-05-07 17:39 32.42545 -94.39735 32098 ft 322 kts 264°
2026-05-07 17:40 32.42295 -94.45019 32104 ft 322 kts 264°
2026-05-07 17:40 32.42044 -94.50291 32100 ft 321 kts 264°
2026-05-07 17:41 32.41790 -94.55582 32105 ft 323 kts 264°
2026-05-07 17:41 32.41536 -94.60864 32105 ft 323 kts 264°
2026-05-07 17:42 32.41278 -94.66153 32109 ft 323 kts 263°
2026-05-07 17:42 32.41018 -94.71481 32110 ft 323 kts 264°
2026-05-07 17:43 32.40756 -94.76784 32104 ft 322 kts 263°
2026-05-07 17:43 32.40491 -94.82099 31886 ft 326 kts 263°
2026-05-07 17:44 32.40355 -94.84772 31493 ft 327 kts 263°
2026-05-07 17:44 32.40218 -94.87460 31084 ft 326 kts 264°
2026-05-07 17:44 32.40083 -94.90129 30679 ft 327 kts 264°
2026-05-07 17:44 32.39945 -94.92828 30271 ft 331 kts 264°
2026-05-07 17:45 32.39803 -94.95566 29864 ft 335 kts 264°
2026-05-07 17:45 32.39660 -94.98331 29455 ft 336 kts 264°
2026-05-07 17:45 32.39543 -95.01080 29053 ft 339 kts 266°
2026-05-07 17:45 32.39529 -95.03870 28658 ft 342 kts 267°
2026-05-07 17:46 32.39576 -95.06709 28257 ft 344 kts 268°
2026-05-07 17:46 32.39632 -95.09536 27860 ft 346 kts 268°
2026-05-07 17:46 32.39681 -95.12381 27464 ft 348 kts 269°
2026-05-07 17:46 32.39723 -95.15233 27070 ft 349 kts 269°
2026-05-07 17:47 32.39758 -95.18128 26670 ft 348 kts 268°
2026-05-07 17:47 32.39789 -95.20966 26271 ft 343 kts 268°
2026-05-07 17:47 32.39817 -95.23783 25873 ft 339 kts 269°
2026-05-07 17:47 32.39841 -95.26561 25478 ft 338 kts 269°
2026-05-07 17:48 32.39864 -95.29333 25083 ft 337 kts 269°
2026-05-07 17:48 32.39895 -95.32068 24692 ft 335 kts 269°
2026-05-07 17:48 32.39935 -95.34841 24290 ft 334 kts 269°
2026-05-07 17:48 32.39975 -95.37578 23903 ft 332 kts 270°
2026-05-07 17:49 32.40014 -95.40282 23522 ft 330 kts 270°
2026-05-07 17:49 32.40052 -95.42983 23136 ft 328 kts 270°
2026-05-07 17:49 32.40089 -95.45698 22747 ft 327 kts 270°
2026-05-07 17:49 32.40126 -95.48385 22366 ft 326 kts 270°
2026-05-07 17:50 32.40161 -95.51056 21976 ft 325 kts 270°
2026-05-07 17:50 32.40195 -95.53708 21593 ft 324 kts 270°
2026-05-07 17:50 32.40228 -95.56384 21205 ft 324 kts 270°
2026-05-07 17:50 32.40260 -95.59052 20818 ft 322 kts 270°
2026-05-07 17:51 32.40292 -95.61692 20432 ft 322 kts 270°
2026-05-07 17:51 32.40323 -95.64343 20039 ft 321 kts 270°
2026-05-07 17:51 32.40353 -95.66978 19654 ft 320 kts 269°
2026-05-07 17:51 32.40402 -95.69617 19267 ft 321 kts 270°
2026-05-07 17:52 32.40521 -95.72257 18881 ft 320 kts 272°
2026-05-07 17:52 32.40680 -95.74887 18493 ft 318 kts 272°
2026-05-07 17:52 32.40847 -95.77486 18105 ft 318 kts 272°
2026-05-07 17:52 32.41006 -95.80095 17716 ft 318 kts 271°
2026-05-07 17:53 32.41156 -95.82719 17328 ft 318 kts 271°
2026-05-07 17:53 32.41299 -95.85318 16941 ft 315 kts 271°
2026-05-07 17:53 32.41436 -95.87882 16557 ft 314 kts 271°
2026-05-07 17:53 32.41572 -95.90472 16169 ft 313 kts 271°
2026-05-07 17:54 32.41704 -95.93016 15784 ft 311 kts 271°
2026-05-07 17:54 32.41835 -95.95562 15396 ft 310 kts 271°
2026-05-07 17:54 32.41967 -95.98120 15008 ft 309 kts 271°
2026-05-07 17:54 32.42097 -96.00639 14621 ft 306 kts 271°
2026-05-07 17:55 32.42226 -96.03146 14237 ft 305 kts 271°
2026-05-07 17:55 32.42353 -96.05630 13853 ft 303 kts 271°
2026-05-07 17:55 32.42481 -96.08105 13468 ft 303 kts 271°
2026-05-07 17:55 32.42606 -96.10579 13068 ft 301 kts 271°
2026-05-07 17:56 32.42730 -96.13039 12651 ft 296 kts 271°
2026-05-07 17:56 32.42848 -96.15430 12238 ft 292 kts 272°
2026-05-07 17:56 32.42964 -96.17818 11826 ft 288 kts 272°
2026-05-07 17:56 32.43080 -96.20184 11410 ft 285 kts 272°
2026-05-07 17:57 32.43198 -96.22523 10997 ft 282 kts 272°
2026-05-07 17:57 32.43315 -96.24817 10577 ft 278 kts 272°
2026-05-07 17:57 32.43429 -96.27050 10168 ft 272 kts 272°
2026-05-07 17:57 32.43539 -96.29261 9751 ft 266 kts 272°
2026-05-07 17:58 32.43646 -96.31441 9336 ft 265 kts 272°
2026-05-07 17:58 32.43750 -96.33621 8892 ft 265 kts 273°
2026-05-07 17:58 32.43898 -96.35793 8490 ft 264 kts 278°
2026-05-07 17:58 32.44465 -96.37841 8066 ft 266 kts 300°
2026-05-07 17:59 32.45637 -96.39519 7695 ft 266 kts 312°
2026-05-07 17:59 32.46965 -96.41058 7286 ft 266 kts 314°
2026-05-07 17:59 32.48280 -96.42599 6902 ft 265 kts 313°
2026-05-07 17:59 32.49570 -96.44177 6565 ft 263 kts 313°
2026-05-07 18:00 32.50815 -96.45738 6152 ft 263 kts 313°
2026-05-07 18:00 32.52071 -96.47327 5761 ft 262 kts 313°
2026-05-07 18:00 32.53316 -96.48906 5381 ft 262 kts 314°
2026-05-07 18:00 32.54555 -96.50476 5025 ft 260 kts 314°
2026-05-07 18:01 32.55781 -96.52030 4628 ft 261 kts 314°
2026-05-07 18:01 32.57032 -96.53616 4236 ft 261 kts 314°
2026-05-07 18:01 32.58269 -96.55184 3881 ft 260 kts 315°
2026-05-07 18:01 32.59510 -96.56752 3476 ft 261 kts 316°
2026-05-07 18:02 32.62060 -96.59731 2959 ft 250 kts 319°
2026-05-07 18:02 32.63245 -96.61142 2958 ft 235 kts 317°
2026-05-07 18:02 32.64368 -96.62490 2966 ft 220 kts 318°
2026-05-07 18:03 32.65446 -96.63738 2974 ft 217 kts 320°
2026-05-07 18:03 32.66531 -96.64967 2966 ft 216 kts 319°
2026-05-07 18:03 32.67628 -96.66222 2965 ft 216 kts 318°
2026-05-07 18:03 32.68702 -96.67463 2961 ft 210 kts 319°
2026-05-07 18:04 32.69713 -96.68632 2962 ft 196 kts 319°
2026-05-07 18:04 32.70704 -96.69763 2965 ft 196 kts 319°
2026-05-07 18:04 32.71675 -96.70875 2961 ft 189 kts 319°
2026-05-07 18:04 32.72614 -96.71953 2965 ft 185 kts 319°
2026-05-07 18:05 32.73543 -96.73015 2966 ft 185 kts 319°
2026-05-07 18:05 32.74457 -96.74066 2915 ft 181 kts 319°
2026-05-07 18:05 32.75352 -96.75099 2703 ft 178 kts 319°
2026-05-07 18:05 32.76232 -96.76111 2463 ft 170 kts 319°
2026-05-07 18:06 32.77059 -96.77063 2250 ft 160 kts 319°
2026-05-07 18:06 32.77843 -96.77966 2014 ft 155 kts 319°
2026-05-07 18:06 32.78611 -96.78848 1815 ft 153 kts 320°
2026-05-07 18:06 32.79350 -96.79703 1598 ft 144 kts 320°
2026-05-07 18:07 32.80062 -96.80521 1415 ft 139 kts 320°
2026-05-07 18:07 32.80756 -96.81307 1215 ft 140 kts 320°
2026-05-07 18:07 32.81469 -96.82117 1007 ft 140 kts 319°
2026-05-07 18:07 32.82168 -96.82919 833 ft 136 kts 319°
2026-05-07 18:08 32.82837 -96.83692 661 ft 135 kts 318°
2026-05-07 18:08 32.83518 -96.84476 488 ft 133 kts 318°
2026-05-07 18:08 32.84077 -96.85123 479 ft 82 kts 315°
2026-05-07 18:08 32.84364 -96.85455 477 ft 39 kts 316°
2026-05-07 18:09 32.84495 -96.85523 478 ft 16 kts 43°
2026-05-07 18:09 32.84581 -96.85524 479 ft 14 kts 314°
2026-05-07 18:09 32.84662 -96.85519 479 ft 13 kts 47°
2026-05-07 18:09 32.84725 -96.85441 479 ft 13 kts 44°
2026-05-07 18:10 32.84784 -96.85332 481 ft 15 kts 110°
2026-05-07 18:10 32.84744 -96.85226 482 ft 13 kts 90°
2026-05-07 18:10 32.84744 -96.85113 482 ft 13 kts 91°
2026-05-07 18:10 32.84744 -96.85010 483 ft 11 kts 91°
2026-05-07 18:11 32.84743 -96.84924 485 ft 9 kts 91°
2026-05-07 18:11 32.84742 -96.84842 485 ft 15 kts 93°
2026-05-07 18:11 32.84688 -96.84797 485 ft 9 kts 183°
2026-05-07 18:11 32.84643 -96.84796 485 ft 0 kts 181°